Location: Piotrkow Trybunalski
(51.4000°N, 19.6830°E)
Time: 14:53:46
(UTC+01:00)

Vanguard 2 - Pass Details

Date: 09 February 2023
Orbit: 553 x 2927 km, 32.9° (Epoch: 24 March)

Event Time Altitude Azimuth Distance (km) Brightness Sun altitude
Rises 23:32:32 0° 260° (W) 5,577 11.9 -52.8°
Enters shadow 23:34:13 - 256° (WSW) 5,250 11.7 -52.9°
Reaches altitude 10° 23:36:20 10° 251° (WSW) 4,874 - -52.9°
Maximum altitude 23:48:39 33° 195° (SSW) 3,955 - -53.1°
Drops below altitude 10° 00:03:11 10° 141° (SE) 5,735 - -53.1°
Sets 00:08:13 0° 133° (SE) 6,658 - -53.0°
